Погода в Невельске

Россия / Сахалинская область     46°39′10″N   141°51′47″E
темп.,
°C
ветер,
м/с
пор.,
м/с
влажн.,
%
обл.,
%
осадки,
мм/ч
давл.,
гПа
погр.,
м
24 сентября, пт
пт2423:00+12св597011 0.0 1019625
02:00+12св35733 0.0 1019419
05:00+12ссв35730 0.0 1019588
08:00+13с810710 0.0 10211046
11:00+14с11126999 0.1 10221292
14:00+14с11127199 0.2 10221307
17:00+14с11116864 0.7 10231404
20:00+14с812683 0.0 10241142
25 сентября, сб
сб2523:00+14ссз911692 0.0 10251204
02:00+14ссз9107175 0.1 10261167
05:00+14ссз78705 0.4 1026913
08:00+14сз5664100 0.1 1027836
11:00+15ссз346794 0.1 1027693
14:00+15ссз33694 0.0 1026452
17:00+15ссз33660 0.0 1026441
20:00+15св22630 0.0 1027311
26 сентября, вс
вс2623:00+14вюв21673 0.0 1027129
02:00+13юв326835 0.0 1026120
05:00+13юв3266100 0.0 1026118
08:00+13юв3369100 0.0 1026126
11:00+15ю347699 0.0 1025218
14:00+16ююз558587 0.0 1024278
17:00+16юз3384100 0.0 1023171
20:00+16ююз338484 0.0 102376
27 сентября, пн
пн2723:00+16юз57860 0.1 1023316
02:00+16ююз56850 0.1 1022234
05:00+16ююз46820 0.1 1022216
08:00+16ююз46810 0.0 1021301
11:00+16юз57802 0.0 1021342
14:00+16ююз57823 0.0 1020308
17:00+17ююз57810 0.0 1019237
20:00+16ююз57812 0.0 1020191
28 сентября, вт
вт2823:00+16ю58865 0.0 1019234
02:00+15ююв5988100 0.0 1019330
05:00+15ю698995 0.0 1019329
08:00+16ююз698796 0.0 1019295
11:00+17ююз8118656 0.0 1019333
14:00+16ююз610873 0.0 1018266
17:00+17ююз8108890 0.0 1018323
20:00+16ю710892 0.0 1019262